Location: Bijele Vode
(45.2833°N, 16.2000°E)
Time: 01:28:08
(UTC+00:00)

Ariane Rocket - Pass Details

Date: 18 September 2020
Orbit: 760 x 769 km, 98.7° (Epoch: 26 October)

Event Time Altitude Azimuth Distance (km) Brightness Sun altitude
Exits shadow 18:09:45 10° 146° (SE) 2,308 5.0 -13.0°
Reaches altitude 10° 18:09:48 10° 146° (SE) 2,292 5.0 -13.0°
Maximum altitude 18:14:42 54° 70° (ENE) 932 3.1 -13.8°
Drops below altitude 10° 18:19:38 10° 355° (N) 2,314 5.8 -14.6°
Sets 18:22:00 0° 351° (N) 3,246 6.6 -15.0°
